When you browse on this site, cookies collect data to enhance your experience and personalize the content and advertising you see.
Visit our Privacy Policy to learn more. By continuing to use the site, you agree to this use of cookies and data.
  • In Slovakia
  • List of Countries
  • For 7 days
  • Water Temperature
  • Satellite Maps
  • Weather Map
  • Weather Widgets
  • user-avatar
    Login

    Hourly Weather Verovka

    Today, 17 January, Thursday

    Time Temperature Precipitation Wind Pressure Humidity
    00:00 -12°C° 0 mm 9 mps 725 mmHg 75%
    01:00 -12°C° 0 mm 8 mps 725 mmHg 78%
    02:00 -12°C° 0 mm 8 mps 724 mmHg 81%
    03:00 -12°C° 0 mm 8 mps 724 mmHg 84%
    04:00 -14°C° 0 mm 9 mps 724 mmHg 87%
    05:00 -14°C° 0.5 mm 9 mps 724 mmHg 89%
    06:00 -13°C° 0.5 mm 8 mps 724 mmHg 91%
    07:00 -13°C° 0.5 mm 8 mps 723 mmHg 93%
    08:00 -13°C° 0.5 mm 7 mps 724 mmHg 93%
    09:00 -13°C° 0.5 mm 7 mps 724 mmHg 93%
    10:00 -12°C° 0 mm 6 mps 724 mmHg 92%
    11:00 -11°C° 0.4 mm 6 mps 724 mmHg 93%
    12:00 -11°C° 0.4 mm 5 mps 725 mmHg 93%
    13:00 -10°C° 0.4 mm 5 mps 725 mmHg 93%
    14:00 -9°C° 0 mm 4 mps 725 mmHg 93%
    15:00 -8°C° 0 mm 3 mps 726 mmHg 93%
    16:00 -7°C° 0 mm 1 mps 726 mmHg 95%
    17:00 -9°C° 0 mm 2 mps 727 mmHg 95%
    18:00 -10°C° 0 mm 2 mps 727 mmHg 94%
    19:00 -12°C° 0 mm 2 mps 728 mmHg 94%
    20:00 -13°C° 0 mm 2 mps 728 mmHg 94%
    21:00 -14°C° 0 mm 2 mps 728 mmHg 95%
    22:00 -15°C° 0 mm 2 mps 728 mmHg 95%
    23:00 -15°C° 0 mm 2 mps 729 mmHg 95%

    Tomorrow, 18 January, Friday

    Time Temperature Precipitation Wind Pressure Humidity
    00:00 -16°C° 0 mm 2 mps 729 mmHg 96%
    01:00 -16°C° 0 mm 2 mps 729 mmHg 96%
    02:00 -17°C° 0 mm 2 mps 729 mmHg 95%
    03:00 -17°C° 0 mm 2 mps 729 mmHg 95%
    04:00 -18°C° 0 mm 3 mps 729 mmHg 94%
    05:00 -18°C° 0 mm 3 mps 729 mmHg 94%
    06:00 -18°C° 0 mm 3 mps 729 mmHg 95%
    07:00 -19°C° 0 mm 4 mps 729 mmHg 95%
    08:00 -18°C° 0 mm 4 mps 729 mmHg 94%
    09:00 -19°C° 0 mm 5 mps 729 mmHg 93%
    10:00 -18°C° 0 mm 6 mps 729 mmHg 92%
    11:00 -17°C° 0 mm 6 mps 729 mmHg 89%
    12:00 -15°C° 0 mm 7 mps 728 mmHg 87%
    13:00 -14°C° 0 mm 7 mps 728 mmHg 84%
    14:00 -14°C° 0 mm 7 mps 728 mmHg 85%
    15:00 -14°C° 0 mm 7 mps 728 mmHg 86%
    16:00 -14°C° 0 mm 7 mps 728 mmHg 87%
    17:00 -14°C° 0 mm 6 mps 728 mmHg 89%
    18:00 -14°C° 0 mm 6 mps 729 mmHg 90%
    19:00 -14°C° 0 mm 5 mps 729 mmHg 92%
    20:00 -13°C° 0 mm 5 mps 729 mmHg 93%
    21:00 -13°C° 0 mm 5 mps 729 mmHg 93%
    22:00 -12°C° 0 mm 4 mps 729 mmHg 94%
    23:00 -12°C° 0 mm 4 mps 729 mmHg 94%

    Day after tomorrow, 19 January, Saturday

    Time Temperature Precipitation Wind Pressure Humidity
    00:00 -12°C° 0 mm 4 mps 730 mmHg 95%
    01:00 -12°C° 0 mm 3 mps 730 mmHg 95%
    02:00 -12°C° 0 mm 3 mps 730 mmHg 95%
    03:00 -12°C° 0 mm 3 mps 730 mmHg 95%
    04:00 -12°C° 0 mm 3 mps 730 mmHg 95%
    05:00 -12°C° 0 mm 3 mps 729 mmHg 95%
    06:00 -12°C° 0 mm 4 mps 729 mmHg 96%
    07:00 -12°C° 0 mm 4 mps 729 mmHg 96%
    08:00 -11°C° 0 mm 4 mps 729 mmHg 95%
    09:00 -12°C° 0 mm 5 mps 729 mmHg 95%
    10:00 -11°C° 0 mm 5 mps 729 mmHg 94%
    11:00 -11°C° 0 mm 5 mps 728 mmHg 94%
    12:00 -10°C° 0 mm 6 mps 728 mmHg 94%
    13:00 -9°C° 0 mm 6 mps 728 mmHg 93%
    14:00 -8°C° 0 mm 5 mps 728 mmHg 93%
    15:00 -8°C° 0 mm 5 mps 728 mmHg 93%
    16:00 -8°C° 0 mm 5 mps 728 mmHg 93%
    17:00 -8°C° 0 mm 5 mps 728 mmHg 93%
    18:00 -8°C° 0 mm 5 mps 728 mmHg 93%
    19:00 -8°C° 0 mm 5 mps 728 mmHg 94%
    20:00 -8°C° 0 mm 5 mps 727 mmHg 94%
    21:00 -8°C° 0 mm 5 mps 727 mmHg 94%
    22:00 -8°C° 0 mm 5 mps 727 mmHg 95%
    23:00 -8°C° 0.1 mm 5 mps 727 mmHg 94%

    20 January, Sunday

    Time Temperature Precipitation Wind Pressure Humidity
    00:00 -8°C° 0.1 mm 5 mps 726 mmHg 94%
    01:00 -7°C° 0.1 mm 5 mps 726 mmHg 94%
    02:00 -7°C° 0.2 mm 5 mps 726 mmHg 94%
    03:00 -7°C° 0.2 mm 5 mps 725 mmHg 94%
    04:00 -7°C° 0.2 mm 5 mps 725 mmHg 94%
    05:00 -6°C° 0.3 mm 5 mps 725 mmHg 94%
    06:00 -6°C° 0.3 mm 5 mps 724 mmHg 94%
    07:00 -6°C° 0.3 mm 5 mps 724 mmHg 94%
    08:00 -6°C° 0.3 mm 5 mps 725 mmHg 94%
    09:00 -7°C° 0.3 mm 5 mps 725 mmHg 94%
    10:00 -7°C° 0.3 mm 5 mps 725 mmHg 94%
    11:00 -8°C° 0.2 mm 5 mps 726 mmHg 93%
    12:00 -10°C° 0.2 mm 6 mps 726 mmHg 92%
    13:00 -12°C° 0.2 mm 6 mps 726 mmHg 90%
    14:00 -13°C° 0 mm 5 mps 727 mmHg 91%
    15:00 -15°C° 0 mm 4 mps 728 mmHg 91%
    16:00 -16°C° 0 mm 3 mps 728 mmHg 92%
    17:00 -17°C° 0 mm 4 mps 729 mmHg 93%
    18:00 -18°C° 0 mm 4 mps 730 mmHg 94%
    19:00 -18°C° 0 mm 4 mps 730 mmHg 96%
    20:00 -18°C° 0 mm 4 mps 731 mmHg 95%
    21:00 -18°C° 0 mm 4 mps 731 mmHg 95%
    22:00 -18°C° 0 mm 4 mps 732 mmHg 95%
    23:00 -18°C° 0 mm 4 mps 732 mmHg 95%

    21 January, Monday

    Time Temperature Precipitation Wind Pressure Humidity
    00:00 -18°C° 0 mm 4 mps 732 mmHg 95%
    01:00 -18°C° 0 mm 4 mps 732 mmHg 95%
    02:00 -18°C° 0 mm 4 mps 733 mmHg 95%
    03:00 -18°C° 0 mm 5 mps 733 mmHg 95%
    04:00 -18°C° 0 mm 5 mps 733 mmHg 95%
    05:00 -18°C° 0 mm 6 mps 733 mmHg 94%
    06:00 -18°C° 0 mm 6 mps 733 mmHg 94%
    07:00 -20°C° 0 mm 6 mps 733 mmHg 94%
    08:00 -20°C° 0 mm 7 mps 733 mmHg 93%
    09:00 -20°C° 0 mm 7 mps 733 mmHg 93%
    10:00 -21°C° 0 mm 8 mps 733 mmHg 92%
    11:00 -19°C° 0 mm 8 mps 733 mmHg 91%
    12:00 -19°C° 0 mm 8 mps 733 mmHg 91%
    13:00 -18°C° 0 mm 8 mps 733 mmHg 91%
    14:00 -18°C° 0 mm 8 mps 733 mmHg 90%
    15:00 -18°C° 0 mm 8 mps 733 mmHg 90%
    16:00 -17°C° 0 mm 7 mps 733 mmHg 89%
    17:00 -18°C° 0 mm 7 mps 733 mmHg 90%
    18:00 -18°C° 0 mm 7 mps 733 mmHg 90%
    19:00 -18°C° 0 mm 7 mps 733 mmHg 91%
    20:00 -19°C° 0 mm 7 mps 733 mmHg 91%
    21:00 -18°C° 0 mm 6 mps 733 mmHg 92%
    22:00 -20°C° 0 mm 6 mps 732 mmHg 92%
    23:00 -20°C° 0 mm 6 mps 732 mmHg 92%

    22 January, Tuesday

    Time Temperature Precipitation Wind Pressure Humidity
    00:00 -20°C° 0 mm 6 mps 732 mmHg 92%
    01:00 -20°C° 0 mm 6 mps 731 mmHg 92%
    02:00 -20°C° 0 mm 6 mps 731 mmHg 91%
    03:00 -20°C° 0 mm 6 mps 730 mmHg 90%
    04:00 -18°C° 0 mm 6 mps 729 mmHg 89%
    05:00 -19°C° 0.3 mm 7 mps 728 mmHg 90%
    06:00 -18°C° 0.3 mm 7 mps 727 mmHg 91%
    07:00 -18°C° 0.3 mm 8 mps 726 mmHg 92%
    08:00 -17°C° 0.7 mm 8 mps 726 mmHg 92%
    09:00 -16°C° 0.7 mm 8 mps 725 mmHg 92%
    10:00 -15°C° 0.7 mm 8 mps 724 mmHg 92%
    11:00 -13°C° 0.5 mm 8 mps 723 mmHg 92%
    12:00 -11°C° 0.5 mm 8 mps 722 mmHg 91%
    13:00 -10°C° 0.5 mm 9 mps 721 mmHg 91%
    14:00 -9°C° 0.6 mm 9 mps 721 mmHg 91%
    15:00 -8°C° 0.6 mm 9 mps 720 mmHg 91%
    16:00 -6°C° 0.6 mm 9 mps 720 mmHg 91%
    17:00 -9°C° 0.2 mm 9 mps 720 mmHg 90%
    18:00 -11°C° 0.2 mm 8 mps 720 mmHg 89%
    19:00 -13°C° 0.2 mm 8 mps 720 mmHg 89%
    20:00 -14°C° 0 mm 7 mps 722 mmHg 89%
    21:00 -15°C° 0 mm 7 mps 723 mmHg 89%
    22:00 -17°C° 0 mm 6 mps 724 mmHg 89%
    23:00 -20°C° 0 mm 6 mps 725 mmHg 91%
    Show more